| time (UTC) | temp F | wind direction | speed MPH | gust MPH | rain 1hr in | rain 24hr in | rain mn in | humidity % | barometer mb |
| 20260508095610 | 43 | 255 | 0.0 | 0.0 | 0.00 | 0.00 | 0.00 | 89 | 1008.8 |
| 20260508095107 | 43 | 255 | 0.0 | 0.0 | 0.00 | 0.00 | 0.00 | 89 | 1008.9 |
| 20260508094604 | 43 | 255 | 0.0 | 0.0 | 0.00 | 0.00 | 0.00 | 88 | 1009.1 |
| 20260508094101 | 44 | 255 | 0.0 | 0.0 | 0.00 | 0.00 | 0.00 | 88 | 1008.9 |
| 20260508093558 | 44 | 255 | 0.0 | 1.0 | 0.00 | 0.00 | 0.00 | 87 | 1009.0 |
| 20260508093056 | 45 | 262 | 0.0 | 0.0 | 0.00 | 0.00 | 0.00 | 85 | 1008.9 |
| 20260508092553 | 45 | 261 | 0.0 | 0.0 | 0.00 | 0.00 | 0.00 | 84 | 1009.1 |
| 20260508092052 | 46 | 265 | 0.0 | 0.0 | 0.00 | 0.00 | 0.00 | 82 | 1009.3 |
| 20260508091549 | 46 | 265 | 0.0 | 0.0 | 0.00 | 0.00 | 0.00 | 81 | 1009.3 |
| 20260508091045 | 47 | 274 | 0.0 | 0.0 | 0.00 | 0.00 | 0.00 | 80 | 1009.3 |
| 20260508090543 | 47 | 302 | 2.0 | 5.0 | 0.00 | 0.00 | 0.00 | 80 | 1009.5 |
| 20260508090039 | 47 | 273 | 0.0 | 1.0 | 0.00 | 0.00 | 0.00 | 81 | 1009.6 |
| 20260508085536 | 47 | 240 | 1.0 | 3.0 | 0.00 | 0.00 | 0.00 | 80 | 1009.5 |
| 20260508085033 | 47 | 297 | 0.0 | 2.0 | 0.00 | 0.00 | 0.00 | 81 | 1009.1 |
| 20260508084530 | 46 | 63 | 0.0 | 3.0 | 0.00 | 0.00 | 0.00 | 81 | 1009.0 |
| 20260508084027 | 46 | 273 | 1.0 | 3.0 | 0.00 | 0.00 | 0.00 | 82 | 1009.4 |
| 20260508083525 | 46 | 268 | 0.0 | 0.0 | 0.00 | 0.00 | 0.00 | 81 | 1009.3 |
| 20260508083021 | 46 | 257 | 0.0 | 0.0 | 0.00 | 0.00 | 0.00 | 81 | 1009.3 |
| 20260508082517 | 46 | 270 | 0.0 | 1.0 | 0.00 | 0.00 | 0.00 | 81 | 1009.4 |
| 20260508082014 | 45 | 301 | 0.0 | 3.0 | 0.00 | 0.00 | 0.00 | 81 | 1009.2 |
| 20260508081507 | 45 | 222 | 0.0 | 2.0 | 0.00 | 0.00 | 0.00 | 82 | 1009.3 |
| 20260508081002 | 45 | 265 | 0.0 | 1.0 | 0.00 | 0.00 | 0.00 | 82 | 1009.3 |
| 20260508080501 | 45 | 287 | 0.0 | 2.0 | 0.00 | 0.00 | 0.00 | 81 | 1009.1 |
| 20260508075957 | 45 | 225 | 1.0 | 1.0 | 0.00 | 0.00 | 0.00 | 81 | 1009.2 |
| 20260508075453 | 45 | 274 | 0.0 | 1.0 | 0.00 | 0.00 | 0.00 | 81 | 1009.2 |
| 20260508074951 | 45 | 284 | 0.0 | 1.0 | 0.00 | 0.00 | 0.00 | 82 | 1009.4 |
| 20260508074449 | 45 | 318 | 1.0 | 1.0 | 0.00 | 0.00 | 0.00 | 82 | 1009.3 |
| 20260508073940 | 45 | 273 | 0.0 | 1.0 | 0.00 | 0.00 | 0.00 | 83 | 1009.6 |
| 20260508073437 | 46 | 279 | 0.0 | 0.0 | 0.00 | 0.00 | 0.00 | 82 | 1009.5 |
| 20260508072934 | 46 | 270 | 0.0 | 0.0 | 0.00 | 0.00 | 0.00 | 82 | 1009.3 |
| 20260508072430 | 46 | 265 | 0.0 | 1.0 | 0.00 | 0.00 | 0.00 | 81 | 1009.4 |
| 20260508071928 | 46 | 285 | 0.0 | 1.0 | 0.00 | 0.00 | 0.00 | 82 | 1009.5 |
| 20260508071426 | 46 | 251 | 0.0 | 1.0 | 0.00 | 0.00 | 0.00 | 82 | 1009.4 |
| 20260508070923 | 46 | 284 | 0.0 | 1.0 | 0.00 | 0.00 | 0.00 | 82 | 1009.3 |
| 20260508070420 | 46 | 235 | 1.0 | 1.0 | 0.00 | 0.00 | 0.00 | 82 | 1009.5 |
| 20260508065918 | 46 | 259 | 0.0 | 1.0 | 0.00 | 0.00 | 0.00 | 81 | 1009.6 |
| 20260508065411 | 46 | 238 | 1.0 | 1.0 | 0.00 | 0.00 | 0.00 | 80 | 1009.6 |
| 20260508064909 | 46 | 197 | 0.0 | 1.0 | 0.00 | 0.00 | 0.00 | 80 | 1009.6 |
| 20260508064406 | 47 | 322 | 0.0 | 3.0 | 0.00 | 0.00 | 0.00 | 80 | 1009.8 |
| 20260508063903 | 47 | 234 | 0.0 | 1.0 | 0.00 | 0.00 | 0.00 | 79 | 1010.0 |
| 20260508063401 | 47 | 268 | 0.0 | 1.0 | 0.00 | 0.00 | 0.00 | 79 | 1010.0 |
| 20260508062857 | 46 | 279 | 0.0 | 2.0 | 0.00 | 0.00 | 0.00 | 81 | 1009.9 |
| 20260508062355 | 46 | 199 | 2.0 | 2.0 | 0.00 | 0.00 | 0.00 | 82 | 1009.6 |
| 20260508061851 | 46 | 136 | 1.0 | 3.0 | 0.00 | 0.00 | 0.00 | 84 | 1009.7 |
| 20260508061344 | 46 | 266 | 0.0 | 0.0 | 0.00 | 0.00 | 0.00 | 83 | 1009.8 |
| 20260508060839 | 46 | 285 | 0.0 | 1.0 | 0.00 | 0.00 | 0.00 | 82 | 1009.7 |
| 20260508060337 | 46 | 275 | 0.0 | 0.0 | 0.00 | 0.00 | 0.00 | 82 | 1009.8 |
| 20260508055832 | 46 | 276 | 0.0 | 0.0 | 0.00 | 0.00 | 0.00 | 81 | 1009.8 |
| 20260508055330 | 46 | 275 | 0.0 | 0.0 | 0.00 | 0.00 | 0.00 | 80 | 1009.6 |
| 20260508054826 | 46 | 275 | 0.0 | 0.0 | 0.00 | 0.00 | 0.00 | 77 | 1009.8 |
| 20260508054324 | 47 | 275 | 0.0 | 0.0 | 0.00 | 0.00 | 0.00 | 76 | 1009.9 |
| 20260508053821 | 46 | 254 | 0.0 | 0.0 | 0.00 | 0.00 | 0.00 | 76 | 1009.8 |
| 20260508053319 | 46 | 254 | 0.0 | 0.0 | 0.00 | 0.00 | 0.00 | 77 | 1009.7 |
| 20260508052816 | 46 | 254 | 0.0 | 0.0 | 0.00 | 0.00 | 0.00 | 76 | 1009.7 |
| 20260508052313 | 46 | 254 | 0.0 | 0.0 | 0.00 | 0.00 | 0.00 | 76 | 1009.9 |
| 20260508051809 | 46 | 254 | 0.0 | 0.0 | 0.00 | 0.00 | 0.00 | 77 | 1009.9 |
| 20260508051304 | 46 | 254 | 0.0 | 0.0 | 0.00 | 0.00 | 0.00 | 77 | 1010.0 |
| 20260508050801 | 46 | 254 | 0.0 | 0.0 | 0.00 | 0.00 | 0.00 | 76 | 1009.9 |
| 20260508050258 | 46 | 254 | 0.0 | 0.0 | 0.00 | 0.00 | 0.00 | 76 | 1009.7 |
| 20260508045754 | 46 | 254 | 0.0 | 0.0 | 0.00 | 0.00 | 0.00 | 76 | 1009.8 |
| 20260508045252 | 46 | 254 | 0.0 | 0.0 | 0.00 | 0.00 | 0.00 | 76 | 1009.7 |
| 20260508044749 | 46 | 254 | 0.0 | 0.0 | 0.00 | 0.00 | 0.00 | 76 | 1009.8 |
| 20260508044246 | 46 | 253 | 0.0 | 0.0 | 0.00 | 0.00 | 0.00 | 76 | 1009.7 |
| 20260508043742 | 47 | 253 | 0.0 | 1.0 | 0.00 | 0.00 | 0.00 | 74 | 1009.9 |
| 20260508043239 | 47 | 281 | 0.0 | 0.0 | 0.00 | 0.00 | 0.00 | 72 | 1010.0 |
| 20260508042736 | 47 | 281 | 0.0 | 0.0 | 0.00 | 0.00 | 0.00 | 71 | 1009.9 |
| 20260508042233 | 48 | 281 | 0.0 | 0.0 | 0.00 | 0.00 | 0.00 | 71 | 1010.0 |
| 20260508041730 | 48 | 281 | 0.0 | 0.0 | 0.00 | 0.00 | 0.00 | 69 | 1010.0 |
| 20260508041227 | 48 | 282 | 0.0 | 0.0 | 0.00 | 0.00 | 0.00 | 69 | 1010.3 |
| 20260508040723 | 48 | 282 | 0.0 | 0.0 | 0.00 | 0.00 | 0.00 | 68 | 1010.1 |
| 20260508040220 | 49 | 279 | 0.0 | 0.0 | 0.00 | 0.00 | 0.00 | 67 | 1010.3 |
| 20260508035717 | 49 | 275 | 0.0 | 1.0 | 0.00 | 0.00 | 0.00 | 67 | 1010.0 |
| 20260508035215 | 49 | 284 | 0.0 | 1.0 | 0.00 | 0.00 | 0.00 | 67 | 1010.2 |
| 20260508034711 | 49 | 286 | 0.0 | 1.0 | 0.00 | 0.00 | 0.00 | 66 | 1010.2 |
| 20260508034209 | 49 | 282 | 0.0 | 1.0 | 0.00 | 0.00 | 0.00 | 65 | 1010.0 |
| 20260508033706 | 49 | 284 | 0.0 | 2.0 | 0.00 | 0.00 | 0.00 | 65 | 1010.1 |
| 20260508033204 | 49 | 332 | 2.0 | 2.0 | 0.00 | 0.00 | 0.00 | 64 | 1009.9 |
| 20260508032701 | 49 | 277 | 0.0 | 0.0 | 0.00 | 0.00 | 0.00 | 64 | 1010.3 |
| 20260508032158 | 50 | 291 | 1.0 | 2.0 | 0.00 | 0.00 | 0.00 | 63 | 1010.1 |
| 20260508031655 | 49 | 305 | 1.0 | 3.0 | 0.00 | 0.00 | 0.00 | 63 | 1010.2 |
| 20260508031151 | 50 | 331 | 2.0 | 2.0 | 0.00 | 0.00 | 0.00 | 63 | 1010.3 |
| 20260508030647 | 49 | 287 | 1.0 | 2.0 | 0.00 | 0.00 | 0.00 | 62 | 1010.2 |
| 20260508030145 | 50 | 284 | 0.0 | 1.0 | 0.00 | 0.00 | 0.00 | 63 | 1010.0 |
| 20260508025641 | 50 | 284 | 1.0 | 2.0 | 0.00 | 0.00 | 0.00 | 62 | 1010.2 |
| 20260508025139 | 50 | 291 | 0.0 | 2.0 | 0.00 | 0.00 | 0.00 | 62 | 1010.0 |
| 20260508024634 | 50 | 294 | 1.0 | 5.0 | 0.00 | 0.00 | 0.00 | 62 | 1010.0 |
| 20260508024132 | 49 | 307 | 2.0 | 3.0 | 0.00 | 0.00 | 0.00 | 62 | 1010.0 |
| 20260508023628 | 48 | 254 | 1.0 | 3.0 | 0.00 | 0.00 | 0.00 | 66 | 1010.1 |
| 20260508023126 | 47 | 303 | 0.0 | 2.0 | 0.00 | 0.00 | 0.00 | 71 | 1010.0 |
| 20260508022621 | 46 | 276 | 0.0 | 0.0 | 0.00 | 0.00 | 0.00 | 75 | 1010.1 |
| 20260508022119 | 46 | 268 | 0.0 | 0.0 | 0.00 | 0.00 | 0.00 | 75 | 1009.8 |
| 20260508021614 | 46 | 289 | 0.0 | 0.0 | 0.00 | 0.00 | 0.00 | 75 | 1010.1 |
| 20260508021110 | 45 | 291 | 0.0 | 1.0 | 0.00 | 0.00 | 0.00 | 75 | 1009.9 |
| 20260508020608 | 44 | 281 | 0.0 | 0.0 | 0.00 | 0.00 | 0.00 | 76 | 1009.7 |
| 20260508020106 | 44 | 281 | 0.0 | 0.0 | 0.00 | 0.00 | 0.00 | 75 | 1009.7 |
| 20260508015603 | 44 | 281 | 0.0 | 0.0 | 0.00 | 0.00 | 0.00 | 75 | 1009.5 |
| 20260508015059 | 44 | 281 | 0.0 | 0.0 | 0.00 | 0.00 | 0.00 | 75 | 1009.3 |
| 20260508014556 | 43 | 281 | 0.0 | 0.0 | 0.00 | 0.00 | 0.00 | 77 | 1009.6 |
| 20260508014052 | 42 | 281 | 0.0 | 0.0 | 0.00 | 0.00 | 0.00 | 77 | 1009.6 |
| 20260508013548 | 43 | 281 | 0.0 | 0.0 | 0.00 | 0.00 | 0.00 | 76 | 1009.6 |
| 20260508013046 | 43 | 282 | 0.0 | 0.0 | 0.00 | 0.00 | 0.00 | 75 | 1009.6 |
| 20260508012543 | 43 | 281 | 0.0 | 0.0 | 0.00 | 0.00 | 0.00 | 73 | 1009.6 |
| 20260508012040 | 44 | 281 | 0.0 | 0.0 | 0.00 | 0.00 | 0.00 | 72 | 1009.5 |
| 20260508011539 | 44 | 282 | 0.0 | 0.0 | 0.00 | 0.00 | 0.00 | 71 | 1009.5 |
| 20260508011036 | 44 | 282 | 0.0 | 0.0 | 0.00 | 0.00 | 0.00 | 69 | 1009.3 |
| 20260508010532 | 45 | 282 | 0.0 | 0.0 | 0.00 | 0.00 | 0.00 | 70 | 1009.3 |
| 20260508010030 | 45 | 282 | 0.0 | 0.0 | 0.00 | 0.00 | 0.00 | 67 | 1009.2 |
| 20260508005526 | 46 | 282 | 0.0 | 0.0 | 0.00 | 0.00 | 0.00 | 65 | 1009.6 |
| 20260508005023 | 47 | 282 | 0.0 | 0.0 | 0.00 | 0.00 | 0.00 | 64 | 1009.2 |
| 20260508004519 | 48 | 282 | 0.0 | 0.0 | 0.00 | 0.00 | 0.00 | 62 | 1009.1 |
| 20260508004016 | 48 | 282 | 0.0 | 0.0 | 0.00 | 0.00 | 0.00 | 62 | 1009.5 |
| 20260508003512 | 49 | 281 | 0.0 | 0.0 | 0.00 | 0.00 | 0.00 | 58 | 1009.1 |
| 20260508003009 | 50 | 282 | 0.0 | 0.0 | 0.00 | 0.00 | 0.00 | 57 | 1009.1 |
| 20260508002505 | 51 | 283 | 0.0 | 0.0 | 0.00 | 0.00 | 0.00 | 56 | 1009.1 |
| 20260508002003 | 51 | 283 | 1.0 | 1.0 | 0.00 | 0.00 | 0.00 | 54 | 1009.0 |
| 20260508001458 | 51 | 276 | 0.0 | 1.0 | 0.00 | 0.00 | 0.00 | 53 | 1009.2 |
| 20260508000954 | 52 | 278 | 1.0 | 3.0 | 0.00 | 0.00 | 0.00 | 51 | 1008.9 |
| 20260508000445 | 53 | 283 | 1.0 | 6.0 | 0.00 | 0.00 | 0.00 | 50 | 1009.0 |
| 20260507235942 | 53 | 274 | 0.0 | 3.0 | 0.00 | 0.00 | 0.00 | 51 | 1009.0 |
| 20260507235439 | 54 | 294 | 2.0 | 2.0 | 0.00 | 0.00 | 0.00 | 49 | 1008.9 |
| 20260507234937 | 54 | 276 | 1.0 | 3.0 | 0.00 | 0.00 | 0.00 | 48 | 1008.8 |
| 20260507234433 | 54 | 276 | 2.0 | 5.0 | 0.00 | 0.00 | 0.00 | 49 | 1008.7 |
| 20260507233930 | 55 | 288 | 2.0 | 3.0 | 0.00 | 0.00 | 0.00 | 48 | 1008.7 |
| 20260507233426 | 56 | 297 | 3.0 | 3.0 | 0.00 | 0.00 | 0.00 | 46 | 1008.7 |
| 20260507232925 | 55 | 267 | 1.0 | 3.0 | 0.00 | 0.00 | 0.00 | 47 | 1008.7 |
| 20260507232421 | 55 | 276 | 2.0 | 3.0 | 0.00 | 0.00 | 0.00 | 48 | 1008.8 |
| 20260507231919 | 56 | 286 | 3.0 | 5.0 | 0.00 | 0.00 | 0.00 | 47 | 1008.8 |
| 20260507231415 | 56 | 285 | 1.0 | 2.0 | 0.00 | 0.00 | 0.00 | 48 | 1008.7 |
| 20260507230911 | 56 | 324 | 3.0 | 3.0 | 0.00 | 0.00 | 0.00 | 47 | 1008.8 |
| 20260507230409 | 55 | 284 | 2.0 | 5.0 | 0.00 | 0.00 | 0.00 | 46 | 1008.9 |
| 20260507225908 | 56 | 311 | 2.0 | 5.0 | 0.00 | 0.00 | 0.00 | 47 | 1008.8 |
| 20260507225404 | 56 | 301 | 1.0 | 3.0 | 0.00 | 0.00 | 0.00 | 48 | 1008.9 |
| 20260507224901 | 56 | 220 | 2.0 | 7.0 | 0.00 | 0.00 | 0.00 | 47 | 1009.2 |
| 20260507224352 | 56 | 290 | 3.0 | 6.0 | 0.00 | 0.00 | 0.00 | 46 | 1009.0 |
| 20260507223848 | 55 | 306 | 2.0 | 6.0 | 0.00 | 0.00 | 0.00 | 47 | 1008.9 |
| 20260507223345 | 54 | 261 | 3.0 | 3.0 | 0.00 | 0.00 | 0.00 | 50 | 1009.1 |
| 20260507222842 | 55 | 291 | 1.0 | 2.0 | 0.00 | 0.00 | 0.00 | 49 | 1008.9 |
| 20260507222338 | 55 | 272 | 0.0 | 5.0 | 0.00 | 0.00 | 0.00 | 48 | 1009.0 |
| 20260507221835 | 56 | 202 | 3.0 | 13.0 | 0.00 | 0.00 | 0.00 | 46 | 1009.1 |
| 20260507221332 | 56 | 277 | 2.0 | 9.0 | 0.00 | 0.00 | 0.00 | 45 | 1009.0 |
| 20260507220827 | 56 | 203 | 1.0 | 3.0 | 0.00 | 0.00 | 0.00 | 46 | 1009.0 |
| 20260507220326 | 55 | 179 | 1.0 | 8.0 | 0.00 | 0.00 | 0.00 | 47 | 1008.9 |
| 20260507215822 | 55 | 270 | 3.0 | 5.0 | 0.00 | 0.00 | 0.00 | 47 | 1008.7 |
| 20260507215319 | 55 | 301 | 1.0 | 3.0 | 0.00 | 0.00 | 0.00 | 50 | 1008.7 |
| 20260507214816 | 55 | 339 | 1.0 | 3.0 | 0.00 | 0.00 | 0.00 | 47 | 1008.9 |
| 20260507214313 | 57 | 270 | 4.0 | 8.0 | 0.00 | 0.00 | 0.00 | 45 | 1008.9 |
| 20260507213808 | 57 | 326 | 3.0 | 9.0 | 0.00 | 0.00 | 0.00 | 46 | 1008.9 |
| 20260507213306 | 57 | 286 | 3.0 | 5.0 | 0.00 | 0.00 | 0.00 | 46 | 1008.8 |
| 20260507212803 | 58 | 301 | 5.0 | 7.0 | 0.00 | 0.00 | 0.00 | 45 | 1008.7 |
| 20260507212258 | 58 | 284 | 5.0 | 10.0 | 0.00 | 0.00 | 0.00 | 44 | 1008.6 |
| 20260507211755 | 57 | 249 | 1.0 | 6.0 | 0.00 | 0.00 | 0.00 | 46 | 1008.5 |
| 20260507211252 | 57 | 345 | 4.0 | 10.0 | 0.00 | 0.00 | 0.00 | 46 | 1008.6 |
| 20260507210749 | 55 | 252 | 2.0 | 5.0 | 0.00 | 0.00 | 0.00 | 51 | 1008.5 |
| 20260507210246 | 57 | 231 | 3.0 | 8.0 | 0.00 | 0.00 | 0.00 | 50 | 1008.4 |
| 20260507205742 | 57 | 279 | 3.0 | 5.0 | 0.00 | 0.00 | 0.00 | 48 | 1008.3 |
| 20260507205239 | 57 | 6 | 1.0 | 5.0 | 0.00 | 0.00 | 0.00 | 50 | 1008.5 |
| 20260507204735 | 57 | 240 | 4.0 | 7.0 | 0.00 | 0.00 | 0.00 | 48 | 1008.4 |
| 20260507204233 | 58 | 16 | 4.0 | 6.0 | 0.00 | 0.00 | 0.00 | 50 | 1008.3 |
| 20260507203731 | 57 | 2 | 3.0 | 7.0 | 0.00 | 0.00 | 0.00 | 53 | 1008.6 |
| 20260507203227 | 58 | 327 | 5.0 | 9.0 | 0.00 | 0.00 | 0.00 | 51 | 1008.5 |
| 20260507202723 | 56 | 329 | 2.0 | 6.0 | 0.00 | 0.00 | 0.00 | 52 | 1008.5 |
| 20260507202220 | 56 | 252 | 2.0 | 6.0 | 0.00 | 0.00 | 0.00 | 52 | 1008.3 |
| 20260507201714 | 55 | 347 | 2.0 | 9.0 | 0.00 | 0.00 | 0.00 | 53 | 1008.3 |
| 20260507201212 | 58 | 267 | 3.0 | 6.0 | 0.00 | 0.00 | 0.00 | 50 | 1008.4 |
| 20260507200708 | 57 | 302 | 2.0 | 5.0 | 0.00 | 0.00 | 0.00 | 51 | 1008.7 |
| 20260507200204 | 58 | 291 | 3.0 | 6.0 | 0.00 | 0.00 | 0.00 | 51 | 1008.5 |
| 20260507195700 | 57 | 316 | 1.0 | 5.0 | 0.00 | 0.00 | 0.00 | 52 | 1008.3 |
| 20260507195158 | 59 | 327 | 2.0 | 5.0 | 0.00 | 0.00 | 0.00 | 50 | 1007.9 |
| 20260507194654 | 58 | 252 | 2.0 | 10.0 | 0.00 | 0.00 | 0.00 | 51 | 1008.5 |
| 20260507194151 | 56 | 250 | 2.0 | 3.0 | 0.00 | 0.00 | 0.00 | 51 | 1008.6 |
| 20260507193647 | 57 | 282 | 3.0 | 7.0 | 0.00 | 0.00 | 0.00 | 50 | 1008.6 |
| 20260507193144 | 58 | 339 | 6.0 | 10.0 | 0.00 | 0.00 | 0.00 | 49 | 1008.4 |
| 20260507192640 | 57 | 253 | 3.0 | 10.0 | 0.00 | 0.00 | 0.00 | 48 | 1008.7 |
| 20260507192138 | 58 | 341 | 2.0 | 8.0 | 0.00 | 0.00 | 0.00 | 47 | 1008.6 |
| 20260507191633 | 57 | 51 | 1.0 | 9.0 | 0.00 | 0.00 | 0.00 | 50 | 1008.6 |
| 20260507191130 | 56 | 317 | 3.0 | 6.0 | 0.00 | 0.00 | 0.00 | 51 | 1008.7 |
| 20260507190627 | 58 | 293 | 3.0 | 7.0 | 0.00 | 0.00 | 0.00 | 49 | 1008.4 |
| 20260507190126 | 59 | 288 | 3.0 | 5.0 | 0.00 | 0.00 | 0.00 | 49 | 1008.5 |
| 20260507185624 | 57 | 250 | 1.0 | 6.0 | 0.00 | 0.00 | 0.00 | 52 | 1008.5 |
| 20260507185120 | 58 | 348 | 4.0 | 7.0 | 0.00 | 0.00 | 0.00 | 51 | 1008.7 |
| 20260507184618 | 57 | 229 | 1.0 | 8.0 | 0.00 | 0.00 | 0.00 | 53 | 1008.7 |
| 20260507184116 | 58 | 276 | 1.0 | 3.0 | 0.00 | 0.00 | 0.00 | 49 | 1008.7 |
| 20260507183612 | 58 | 303 | 2.0 | 9.0 | 0.00 | 0.00 | 0.00 | 51 | 1008.7 |
| 20260507183109 | 59 | 239 | 1.0 | 11.0 | 0.00 | 0.00 | 0.00 | 51 | 1008.6 |
| 20260507182605 | 57 | 0 | 3.0 | 8.0 | 0.00 | 0.00 | 0.00 | 51 | 1008.7 |
| 20260507182101 | 59 | 311 | 3.0 | 6.0 | 0.00 | 0.00 | 0.00 | 50 | 1008.8 |
| 20260507181558 | 58 | 344 | 3.0 | 7.0 | 0.00 | 0.00 | 0.00 | 50 | 1008.6 |
| 20260507181055 | 57 | 260 | 2.0 | 7.0 | 0.00 | 0.00 | 0.00 | 52 | 1008.7 |
| 20260507180552 | 56 | 255 | 0.0 | 7.0 | 0.00 | 0.00 | 0.00 | 53 | 1009.0 |
| 20260507180048 | 55 | 269 | 7.0 | 9.0 | 0.00 | 0.00 | 0.00 | 51 | 1009.0 |
| 20260507175544 | 56 | 323 | 2.0 | 3.0 | 0.00 | 0.00 | 0.00 | 52 | 1009.0 |
| 20260507175042 | 55 | 275 | 1.0 | 5.0 | 0.00 | 0.00 | 0.00 | 53 | 1008.8 |
| 20260507174539 | 57 | 315 | 4.0 | 7.0 | 0.00 | 0.00 | 0.00 | 50 | 1009.0 |
| 20260507174037 | 58 | 356 | 2.0 | 7.0 | 0.00 | 0.00 | 0.00 | 51 | 1008.8 |
| 20260507173533 | 58 | 262 | 2.0 | 7.0 | 0.00 | 0.00 | 0.00 | 52 | 1008.9 |
| 20260507173031 | 58 | 298 | 1.0 | 6.0 | 0.00 | 0.00 | 0.00 | 50 | 1009.1 |
| 20260507172526 | 59 | 293 | 1.0 | 6.0 | 0.00 | 0.00 | 0.00 | 49 | 1009.0 |
| 20260507172023 | 57 | 339 | 1.0 | 3.0 | 0.00 | 0.00 | 0.00 | 52 | 1008.9 |
| 20260507171519 | 57 | 294 | 1.0 | 3.0 | 0.00 | 0.00 | 0.00 | 50 | 1009.3 |
| 20260507171016 | 57 | 268 | 3.0 | 8.0 | 0.00 | 0.00 | 0.00 | 50 | 1009.2 |
| 20260507170513 | 57 | 340 | 4.0 | 6.0 | 0.00 | 0.00 | 0.00 | 47 | 1009.1 |
| 20260507170010 | 58 | 268 | 3.0 | 6.0 | 0.00 | 0.00 | 0.00 | 50 | 1009.2 |
| 20260507165506 | 58 | 316 | 1.0 | 3.0 | 0.00 | 0.00 | 0.00 | 54 | 1009.0 |
| 20260507165002 | 57 | 305 | 2.0 | 7.0 | 0.00 | 0.00 | 0.00 | 50 | 1009.2 |
| 20260507164458 | 57 | 303 | 1.0 | 2.0 | 0.00 | 0.00 | 0.00 | 55 | 1009.0 |
| 20260507163955 | 57 | 335 | 2.0 | 7.0 | 0.00 | 0.00 | 0.00 | 49 | 1009.0 |
| 20260507163453 | 57 | 309 | 3.0 | 6.0 | 0.00 | 0.00 | 0.00 | 52 | 1009.4 |
| 20260507162950 | 57 | 297 | 3.0 | 7.0 | 0.00 | 0.00 | 0.00 | 50 | 1009.3 |
| 20260507162445 | 58 | 343 | 4.0 | 6.0 | 0.00 | 0.00 | 0.00 | 47 | 1009.2 |
| 20260507161942 | 56 | 302 | 2.0 | 6.0 | 0.00 | 0.00 | 0.00 | 50 | 1009.2 |
| 20260507161438 | 56 | 323 | 1.0 | 3.0 | 0.00 | 0.00 | 0.00 | 52 | 1009.2 |
| 20260507160935 | 57 | 291 | 4.0 | 5.0 | 0.00 | 0.00 | 0.00 | 51 | 1009.1 |
| 20260507160431 | 56 | 60 | 2.0 | 6.0 | 0.00 | 0.00 | 0.00 | 50 | 1009.3 |
| 20260507155927 | 56 | 191 | 2.0 | 7.0 | 0.00 | 0.00 | 0.00 | 52 | 1009.4 |
| 20260507155423 | 57 | 253 | 1.0 | 6.0 | 0.00 | 0.00 | 0.00 | 50 | 1009.2 |
| 20260507154921 | 57 | 279 | 1.0 | 2.0 | 0.00 | 0.00 | 0.00 | 52 | 1009.1 |
| 20260507154417 | 56 | 237 | 0.0 | 3.0 | 0.00 | 0.00 | 0.00 | 57 | 1009.2 |
| 20260507153915 | 57 | 285 | 4.0 | 6.0 | 0.00 | 0.00 | 0.00 | 50 | 1009.4 |
| 20260507153411 | 56 | 309 | 3.0 | 8.0 | 0.00 | 0.00 | 0.00 | 49 | 1009.0 |
| 20260507152908 | 56 | 243 | 3.0 | 6.0 | 0.00 | 0.00 | 0.00 | 49 | 1009.2 |
| 20260507152404 | 56 | 339 | 2.0 | 5.0 | 0.00 | 0.00 | 0.00 | 49 | 1009.2 |
| 20260507151900 | 56 | 301 | 1.0 | 7.0 | 0.00 | 0.00 | 0.00 | 50 | 1009.2 |
| 20260507151356 | 56 | 268 | 1.0 | 2.0 | 0.00 | 0.00 | 0.00 | 52 | 1009.3 |
| 20260507150854 | 55 | 271 | 1.0 | 5.0 | 0.00 | 0.00 | 0.00 | 51 | 1009.2 |
| 20260507150350 | 56 | 287 | 2.0 | 3.0 | 0.00 | 0.00 | 0.00 | 53 | 1009.3 |
| 20260507145846 | 55 | 340 | 3.0 | 6.0 | 0.00 | 0.00 | 0.00 | 51 | 1009.3 |
| 20260507145342 | 55 | 251 | 2.0 | 7.0 | 0.00 | 0.00 | 0.00 | 52 | 1009.4 |
| 20260507144840 | 55 | 117 | 2.0 | 6.0 | 0.00 | 0.00 | 0.00 | 51 | 1009.6 |
| 20260507144337 | 56 | 234 | 3.0 | 10.0 | 0.00 | 0.00 | 0.00 | 52 | 1009.4 |
| 20260507143834 | 55 | 211 | 1.0 | 5.0 | 0.00 | 0.00 | 0.00 | 52 | 1009.2 |
| 20260507143331 | 55 | 281 | 0.0 | 3.0 | 0.00 | 0.00 | 0.00 | 55 | 1009.3 |
| 20260507142827 | 55 | 221 | 2.0 | 5.0 | 0.00 | 0.00 | 0.00 | 55 | 1009.3 |
| 20260507142323 | 54 | 262 | 2.0 | 7.0 | 0.00 | 0.00 | 0.00 | 56 | 1009.6 |
| 20260507141820 | 55 | 329 | 1.0 | 3.0 | 0.00 | 0.00 | 0.00 | 59 | 1009.3 |
| 20260507141317 | 54 | 146 | 3.0 | 10.0 | 0.00 | 0.00 | 0.00 | 57 | 1009.4 |
| 20260507140813 | 54 | 268 | 0.0 | 6.0 | 0.00 | 0.00 | 0.00 | 61 | 1009.5 |
| 20260507140310 | 53 | 320 | 2.0 | 6.0 | 0.00 | 0.00 | 0.00 | 61 | 1009.5 |
| 20260507135808 | 54 | 268 | 2.0 | 2.0 | 0.00 | 0.00 | 0.00 | 63 | 1009.5 |
| 20260507135306 | 53 | 242 | 1.0 | 2.0 | 0.00 | 0.00 | 0.00 | 63 | 1009.8 |
| 20260507134801 | 53 | 229 | 1.0 | 3.0 | 0.00 | 0.00 | 0.00 | 63 | 1009.7 |
| 20260507134258 | 53 | 35 | 2.0 | 7.0 | 0.00 | 0.00 | 0.00 | 64 | 1009.7 |
| 20260507133753 | 51 | 299 | 1.0 | 2.0 | 0.00 | 0.00 | 0.00 | 67 | 1009.8 |
| 20260507133250 | 50 | 20 | 0.0 | 3.0 | 0.00 | 0.00 | 0.00 | 70 | 1009.9 |
| 20260507132748 | 50 | 314 | 2.0 | 6.0 | 0.00 | 0.00 | 0.00 | 72 | 1009.9 |
| 20260507132244 | 50 | 259 | 1.0 | 3.0 | 0.00 | 0.00 | 0.00 | 73 | 1009.8 |
| 20260507131741 | 50 | 280 | 3.0 | 3.0 | 0.00 | 0.00 | 0.00 | 74 | 1009.9 |
| 20260507131239 | 50 | 300 | 1.0 | 3.0 | 0.00 | 0.00 | 0.00 | 73 | 1009.6 |
| 20260507130735 | 50 | 272 | 0.0 | 2.0 | 0.00 | 0.00 | 0.00 | 76 | 1009.8 |
| 20260507130233 | 49 | 266 | 0.0 | 1.0 | 0.00 | 0.00 | 0.00 | 75 | 1009.6 |
| 20260507125731 | 49 | 291 | 0.0 | 2.0 | 0.00 | 0.00 | 0.00 | 77 | 1009.8 |
| 20260507125229 | 49 | 345 | 1.0 | 5.0 | 0.00 | 0.00 | 0.00 | 77 | 1009.7 |
| 20260507124725 | 48 | 286 | 1.0 | 2.0 | 0.00 | 0.00 | 0.00 | 78 | 1009.7 |
| 20260507124222 | 47 | 340 | 0.0 | 2.0 | 0.00 | 0.00 | 0.00 | 80 | 1009.8 |
| 20260507123720 | 47 | 313 | 1.0 | 2.0 | 0.00 | 0.00 | 0.00 | 81 | 1009.7 |
| 20260507123217 | 46 | 204 | 1.0 | 2.0 | 0.00 | 0.00 | 0.00 | 82 | 1009.7 |
| 20260507122712 | 46 | 257 | 0.0 | 2.0 | 0.00 | 0.00 | 0.00 | 84 | 1009.6 |
| 20260507122209 | 44 | 194 | 0.0 | 2.0 | 0.00 | 0.00 | 0.00 | 89 | 1009.6 |
| 20260507121704 | 43 | 285 | 0.0 | 3.0 | 0.00 | 0.00 | 0.00 | 94 | 1009.8 |
| 20260507121200 | 42 | 299 | 0.0 | 0.0 | 0.00 | 0.00 | 0.00 | 98 | 1009.7 |
| 20260507120657 | 42 | 346 | 2.0 | 2.0 | 0.00 | 0.00 | 0.00 | 99 | 1009.8 |
| 20260507120154 | 41 | 277 | 0.0 | 1.0 | 0.00 | 0.00 | 0.00 | 99 | 1009.7 |
| 20260507115650 | 42 | 263 | 0.0 | 1.0 | 0.00 | 0.00 | 0.00 | 99 | 1009.8 |
| 20260507115146 | 42 | 282 | 0.0 | 0.0 | 0.00 | 0.00 | 0.00 | 99 | 1009.7 |
| 20260507114642 | 42 | 259 | 0.0 | 0.0 | 0.00 | 0.00 | 0.00 | 99 | 1009.7 |
| 20260507114139 | 41 | 260 | 0.0 | 0.0 | 0.00 | 0.00 | 0.00 | 99 | 1009.7 |
| 20260507113637 | 40 | 261 | 0.0 | 0.0 | 0.00 | 0.00 | 0.00 | 99 | 1009.8 |
| 20260507113133 | 39 | 265 | 0.0 | 0.0 | 0.00 | 0.00 | 0.00 | 99 | 1009.5 |
| 20260507112631 | 39 | 264 | 0.0 | 0.0 | 0.00 | 0.00 | 0.00 | 99 | 1009.5 |
| 20260507112128 | 38 | 262 | 0.0 | 0.0 | 0.00 | 0.00 | 0.00 | 99 | 1009.6 |
| 20260507111625 | 37 | 265 | 0.0 | 0.0 | 0.00 | 0.00 | 0.00 | 99 | 1009.3 |
| 20260507111122 | 37 | 266 | 0.0 | 0.0 | 0.00 | 0.00 | 0.00 | 99 | 1009.6 |
| 20260507110618 | 36 | 266 | 0.0 | 0.0 | 0.00 | 0.00 | 0.00 | 99 | 1009.5 |
| 20260507110115 | 36 | 266 | 0.0 | 0.0 | 0.00 | 0.00 | 0.00 | 99 | 1009.4 |
| 20260507105612 | 35 | 266 | 0.0 | 0.0 | 0.00 | 0.00 | 0.00 | 99 | 1009.7 |
| 20260507105107 | 35 | 267 | 0.0 | 0.0 | 0.00 | 0.00 | 0.00 | 99 | 1009.6 |
| 20260507104606 | 35 | 267 | 0.0 | 0.0 | 0.00 | 0.00 | 0.00 | 99 | 1009.1 |
| 20260507104101 | 35 | 267 | 0.0 | 0.0 | 0.00 | 0.00 | 0.00 | 99 | 1009.5 |
| 20260507103557 | 35 | 266 | 0.0 | 0.0 | 0.00 | 0.00 | 0.00 | 99 | 1009.2 |
| 20260507103054 | 35 | 266 | 0.0 | 0.0 | 0.00 | 0.00 | 0.00 | 99 | 1009.1 |
| 20260507102551 | 35 | 266 | 0.0 | 0.0 | 0.00 | 0.00 | 0.00 | 99 | 1009.3 |
| 20260507102047 | 35 | 266 | 0.0 | 0.0 | 0.00 | 0.00 | 0.00 | 99 | 1009.2 |
| 20260507101542 | 35 | 266 | 0.0 | 0.0 | 0.00 | 0.00 | 0.00 | 99 | 1009.3 |
| 20260507101039 | 35 | 266 | 0.0 | 0.0 | 0.00 | 0.00 | 0.00 | 99 | 1009.4 |
| 20260507100536 | 34 | 268 | 0.0 | 0.0 | 0.00 | 0.00 | 0.00 | 99 | 1009.2 |
| 20260507100035 | 35 | 268 | 0.0 | 0.0 | 0.00 | 0.00 | 0.00 | 99 | 1009.2 |